GFSSW_850_spd_255.txt.gz
Wind_Speed
9 10 11 10 9 9 10 11 12 12 11 9 10 7 1 9 21 24 24 20 19 17 12 8 7 4 5 5 5 5 1 3 4 4 2 13 9 7 12 7 8 7 13 12 20
11 12 11 10 9 8 8 10 11 10 10 10 9 11 2 1 9 29 22 17 18 21 15 8 6 7 5 4 4 4 2 3 3 4 4 12 5 16 8 14 12 25 11 12 23
12 13 12 10 8 8 9 10 11 7 11 13 7 14 6 2 3 20 20 16 18 21 14 10 6 7 6 5 6 3 3 3 2 10 12 7 10 6 7 5 5 16 29 29 25
12 13 11 9 8 8 9 11 9 5 6 15 9 9 14 6 3 19 20 15 17 18 14 16 5 4 5 3 4 0 0 2 9 13 13 8 11 7 14 14 17 24 30 33 33
12 12 11 10 8 8 10 10 8 6 3 6 14 8 6 11 12 20 18 13 14 15 22 13 21 5 4 2 3 3 5 13 16 13 14 14 7 9 20 18 15 19 22 22 21
11 11 11 10 9 8 10 8 8 8 4 2 6 13 5 8 17 22 14 12 14 16 17 20 13 8 7 2 3 5 6 14 6 12 14 8 14 7 4 18 25 34 34 33 29
11 11 10 9 9 9 11 8 6 5 5 2 4 2 15 10 17 19 9 12 16 14 14 14 12 14 2 2 7 4 5 7 1 7 4 18 3 3 11 31 30 32 41 39 34
10 10 9 8 8 9 10 7 7 4 5 1 2 4 5 7 19 19 9 10 12 9 10 10 9 8 8 7 4 4 4 6 7 11 5 8 7 8 30 31 35 36 35 37 34
10 10 9 7 7 9 9 4 9 1 4 6 4 3 3 6 19 24 14 12 8 6 9 7 5 7 10 4 3 7 3 4 9 4 3 2 16 17 40 31 27 29 34 29 26
9 9 8 7 7 10 9 2 3 8 3 3 6 4 9 10 12 22 13 8 7 6 2 5 6 4 4 6 2 4 4 4 9 5 5 15 18 23 36 23 23 24 17 13 14
9 8 7 6 7 9 8 3 3 1 14 9 7 4 6 10 5 21 19 3 6 11 5 7 6 3 3 2 4 3 4 10 12 11 5 12 19 25 27 21 12 7 11 17 20
9 8 6 6 6 8 7 3 2 5 8 7 5 7 8 10 6 22 22 7 8 5 7 5 2 1 5 4 3 2 7 8 10 4 7 14 23 21 11 6 1 3 11 18 23
8 7 6 6 5 6 7 6 5 4 3 4 7 6 7 8 7 17 19 6 6 5 5 1 1 4 3 2 4 3 4 5 6 15 2 6 9 6 4 1 4 4 11 15 21
8 7 5 5 3 5 5 5 4 2 4 4 3 5 5 3 3 14 12 6 5 4 3 3 4 3 3 2 1 6 3 7 12 9 4 6 6 6 3 5 2 9 15 23 23
7 6 5 3 2 2 2 3 4 4 4 1 3 3 4 6 5 8 10 5 3 4 2 2 4 4 2 2 2 8 9 14 9 5 4 1 4 9 3 1 2 7 19 25 26
9 7 5 4 2 1 3 2 3 6 5 3 4 6 2 7 5 10 6 8 3 2 1 4 4 2 2 5 3 8 7 8 1 0 2 4 2 8 4 2 2 8 17 21 29
10 8 6 5 3 1 1 2 5 5 3 5 2 4 2 6 5 8 5 7 5 6 7 7 1 3 3 4 2 10 6 5 6 4 5 2 4 11 3 4 4 9 22 22 31
11 9 8 7 4 2 0 5 4 2 6 0 2 2 2 5 3 6 3 3 6 5 3 4 8 4 4 1 3 3 2 4 4 4 10 15 7 6 5 5 9 24 28 39 34
13 10 9 8 6 3 2 3 7 7 6 7 2 5 4 2 1 2 3 3 2 2 4 3 6 3 2 2 3 4 2 4 5 2 4 4 6 8 4 7 22 26 36 36 32
15 10 11 10 8 5 4 6 3 3 5 4 5 2 4 4 0 3 1 2 4 2 3 2 5 1 5 2 1 4 3 4 3 5 6 6 7 9 5 14 20 22 31 29 36
16 7 7 13 9 3 3 6 4 5 4 4 5 3 4 3 1 1 3 3 2 3 2 4 3 5 2 1 2 4 3 2 2 2 3 6 8 3 6 18 21 23 27 33 34
15 3 10 16 4 1 3 5 5 5 3 2 4 3 6 6 3 2 4 4 4 4 4 3 3 5 7 3 3 1 4 4 3 4 4 5 8 4 13 20 33 35 29 35 35
14 6 11 20 4 3 2 1 4 5 5 5 3 1 2 5 1 3 4 2 4 5 5 4 2 4 9 5 2 2 3 2 0 0 7 3 8 14 21 22 35 21 35 35 37
10 3 3 12 5 6 5 4 4 4 4 5 4 5 4 2 2 4 4 3 4 4 3 6 3 7 6 5 2 6 6 7 4 3 3 9 20 27 25 25 26 24 33 34 33
14 6 7 5 7 5 6 7 5 6 3 7 1 5 6 3 1 4 2 2 2 3 4 4 4 4 8 16 9 14 17 12 9 12 5 9 16 26 21 22 24 30 32 31 33
19 10 6 3 11 11 8 9 11 5 8 6 5 9 7 6 7 9 6 4 5 3 4 1 3 3 5 4 3 9 16 16 14 12 15 19 21 10 30 29 19 30 31 31 31
20 22 12 4 4 6 6 7 10 12 9 4 10 6 6 8 7 4 4 8 9 7 6 5 1 3 6 6 10 5 6 6 4 6 5 6 10 17 19 17 14 29 32 31 31

GFSSW_850_spd_258.txt.gz
Wind_Speed
11 11 11 10 9 9 9 10 11 10 10 8 7 6 3 6 20 20 21 16 17 16 8 3 4 6 9 5 4 1 5 9 11 7 1 8 10 7 13 12 11 6 11 9 17
11 12 11 9 8 8 9 9 10 8 13 9 11 11 3 2 8 26 19 13 17 18 10 5 8 10 5 3 2 4 5 6 1 2 5 13 11 16 11 18 20 23 9 16 21
11 12 11 9 8 8 9 9 9 6 12 10 9 14 5 2 3 19 17 15 17 19 9 6 8 6 5 3 3 0 4 1 2 7 9 11 15 8 13 16 19 20 25 27 26
11 11 10 9 8 8 9 9 8 5 2 10 14 6 13 4 2 17 14 15 16 17 9 10 5 4 3 2 3 2 2 5 6 8 8 9 12 12 16 22 16 21 17 21 24
11 11 9 8 7 7 9 9 8 7 3 3 10 8 4 9 9 16 10 13 12 13 17 11 12 4 4 3 2 1 4 7 6 7 6 8 9 14 24 21 12 14 19 23 23
10 10 9 7 6 7 9 8 7 7 3 3 7 12 3 7 15 17 8 10 11 14 15 20 9 9 7 3 2 4 7 9 5 6 2 8 20 6 8 11 12 21 27 27 28
10 10 9 7 6 7 9 6 5 4 5 4 5 1 14 10 17 14 5 9 13 11 13 13 16 7 3 2 4 3 4 5 4 6 4 16 6 7 14 12 23 28 28 27 24
10 10 8 6 5 8 8 5 6 4 6 1 3 2 4 5 17 15 8 8 13 8 9 10 9 8 6 2 2 3 1 7 5 9 3 11 10 17 23 20 27 24 23 20 19
10 9 8 7 6 7 6 2 8 1 3 7 3 2 2 5 14 22 9 9 6 5 8 7 5 6 6 3 1 7 7 9 10 6 5 4 18 19 32 24 22 19 15 11 9
9 9 8 6 7 8 6 2 3 10 1 2 4 3 7 8 9 20 11 8 6 4 3 6 6 4 9 10 5 8 7 7 13 7 9 17 22 22 26 19 17 10 3 5 8
9 9 7 6 6 7 6 3 2 2 11 10 6 3 5 7 4 19 14 3 4 10 4 5 6 8 8 5 4 8 11 15 16 9 14 12 24 22 21 12 6 4 4 7 12
9 9 7 5 5 6 6 2 2 6 5 8 5 5 6 9 5 21 17 4 7 5 4 2 5 3 6 3 5 9 13 12 12 3 12 17 23 18 6 4 7 6 5 9 14
9 8 6 5 4 4 6 5 4 4 1 3 6 6 6 8 6 16 17 7 7 5 7 2 2 4 3 3 8 12 6 13 12 21 4 12 12 5 3 5 7 8 7 9 14
9 8 7 5 2 4 4 5 2 1 1 2 2 4 5 3 3 13 12 6 4 3 2 2 2 3 3 3 6 7 1 14 16 11 6 8 6 10 3 11 9 11 9 14 21
9 7 6 3 1 2 3 2 3 2 2 2 1 2 4 6 5 7 9 4 2 4 4 2 2 3 1 4 5 8 17 18 14 8 7 3 4 8 11 7 8 7 14 20 23
10 8 6 4 2 1 2 2 2 3 4 1 2 4 1 6 5 8 5 7 2 0 0 2 2 2 3 9 4 13 12 3 2 1 3 3 4 12 6 7 8 8 16 24 32
12 9 7 5 4 2 1 2 3 3 2 1 1 2 2 4 3 8 5 8 6 4 6 4 1 0 2 5 1 12 7 4 3 2 4 3 9 12 14 14 11 11 26 32 42
12 10 8 6 5 4 3 3 2 1 5 2 1 2 2 4 3 4 2 3 6 3 1 5 2 1 2 2 4 4 4 3 6 5 12 16 8 7 6 6 7 23 30 40 40
14 12 10 8 7 5 4 2 5 5 4 8 3 2 2 2 1 1 3 2 1 2 3 3 4 1 2 1 2 1 1 2 5 6 6 5 7 14 4 8 24 33 34 39 27
16 10 9 10 8 6 3 4 3 2 6 2 4 2 4 3 3 1 2 3 4 2 2 2 6 2 1 1 2 2 4 2 2 5 7 7 13 12 14 19 20 22 32 33 37
17 5 6 12 10 5 3 5 3 3 3 3 4 4 2 3 2 3 4 2 4 4 1 3 2 0 1 4 1 2 2 3 3 3 4 7 9 4 13 20 23 24 36 36 37
19 4 9 16 4 1 3 5 5 5 4 2 3 3 4 7 4 4 5 3 7 7 3 4 2 5 3 2 3 3 2 2 3 2 5 6 9 6 13 21 30 29 30 37 34
22 9 13 18 3 3 1 2 5 6 5 5 4 1 2 5 3 4 4 3 7 6 5 6 2 5 2 3 3 4 5 5 1 1 9 4 9 15 18 22 33 27 33 36 34
13 4 5 12 6 3 5 4 5 5 4 4 4 5 3 2 1 4 5 5 7 6 6 5 3 5 5 4 2 7 5 7 4 4 5 11 19 24 25 25 25 28 34 34 33
10 6 10 6 8 6 1 7 7 7 4 7 3 8 6 4 3 4 4 4 3 5 5 4 4 5 11 17 15 18 19 14 15 12 7 10 13 25 21 21 20 24 35 32 33
18 10 10 8 7 12 3 6 10 5 10 6 6 10 10 5 4 8 8 5 5 7 7 3 3 3 5 4 3 9 16 17 16 16 18 23 25 12 26 29 25 27 32 32 33
18 19 17 14 9 7 9 7 9 11 7 3 12 7 10 9 5 4 4 8 10 8 8 5 2 2 5 6 11 7 8 12 6 10 6 8 11 14 18 18 20 29 31 31 32

GFSSW_850_spd_261.txt.gz
Wind_Speed
12 12 11 10 9 9 10 10 10 9 10 7 10 7 6 4 16 17 15 16 18 14 7 3 1 3 6 7 5 6 7 11 14 14 8 5 9 6 8 17 13 10 11 11 13
12 12 11 9 8 8 9 9 9 8 10 10 12 11 1 3 8 15 17 13 15 12 8 3 4 6 4 5 5 10 9 9 7 5 8 13 13 16 16 18 22 21 19 9 20
12 12 10 8 7 7 8 8 8 4 8 12 9 12 5 1 2 10 14 14 15 12 9 4 4 3 2 3 0 1 6 7 2 5 8 13 17 16 17 17 20 21 21 21 20
11 11 10 8 7 6 7 8 7 6 4 7 11 5 12 7 2 14 12 14 14 14 9 3 2 2 3 3 1 4 4 6 6 7 9 10 14 13 18 25 21 19 19 17 19
11 11 10 8 7 7 9 8 5 6 2 4 9 5 5 5 7 13 9 11 11 13 14 5 6 2 2 2 1 4 3 5 5 6 10 12 15 15 27 24 19 13 13 19 23
11 11 10 8 7 7 9 9 6 4 3 2 5 9 5 3 13 12 9 10 8 10 12 15 6 7 5 2 3 4 8 9 5 7 10 9 17 17 8 6 9 13 21 22 21
11 11 10 8 7 8 10 7 5 3 2 1 3 1 9 5 14 12 6 8 9 9 7 9 8 3 1 2 3 5 6 6 5 5 10 13 14 12 12 9 13 20 21 19 18
10 11 10 8 7 9 9 5 6 1 5 1 1 3 3 4 13 13 6 7 10 7 6 8 7 5 5 2 3 4 4 7 3 5 2 8 11 13 17 18 22 19 17 15 13
11 11 10 8 7 9 9 3 6 2 1 4 2 4 2 2 9 17 9 7 4 3 7 7 4 3 4 4 5 2 8 12 11 4 5 7 16 20 28 21 18 16 14 10 8
10 10 10 8 7 8 8 6 6 7 2 1 3 2 3 4 6 17 10 5 4 3 2 4 1 1 9 10 5 11 10 10 14 9 14 18 23 21 26 17 14 11 7 8 8
9 9 10 9 8 8 7 4 3 1 5 5 2 2 4 5 3 13 10 4 3 5 2 4 4 7 9 7 5 8 13 18 16 15 11 14 25 23 21 11 9 6 8 9 9
10 9 9 9 8 7 7 2 2 4 2 3 2 3 4 4 2 14 8 3 5 4 4 3 5 5 5 4 7 11 17 15 10 18 16 19 28 23 10 8 6 10 10 12 13
10 9 9 8 7 6 6 3 2 3 3 0 2 2 3 3 3 11 10 3 4 5 7 4 3 4 4 6 9 14 10 14 17 25 14 11 16 2 5 5 8 12 13 13 15
10 9 8 8 5 5 4 6 1 0 1 2 2 2 4 1 1 9 9 3 3 5 4 3 2 4 5 6 6 11 5 14 18 14 5 10 7 14 3 6 10 9 13 15 19
10 9 7 6 4 4 4 4 1 1 3 2 2 1 3 2 4 5 9 2 4 2 3 3 2 4 4 5 7 8 17 17 15 11 10 2 4 7 13 8 14 16 14 18 23
12 10 7 7 5 3 3 1 2 3 5 2 1 1 1 4 4 7 3 5 2 1 1 2 1 1 3 11 7 13 16 11 4 4 4 2 3 9 6 13 18 20 21 25 37
14 10 8 7 5 3 1 3 3 3 1 1 1 3 2 4 2 6 3 5 3 1 3 1 2 2 1 8 3 13 11 4 3 2 4 2 9 11 14 14 11 15 29 37 40
15 12 10 8 6 4 1 2 2 1 4 3 2 1 2 3 1 1 0 2 5 3 1 3 1 3 2 2 4 5 4 3 5 6 12 16 7 5 15 8 12 31 34 39 35
18 12 11 9 7 5 3 1 5 3 1 6 4 2 1 1 2 2 1 1 2 3 2 2 2 3 2 1 2 1 1 3 4 8 6 6 11 17 1 13 23 30 36 34 32
21 14 10 11 10 7 3 5 3 0 4 2 4 2 3 2 3 3 3 2 3 1 3 3 5 3 3 2 3 1 3 3 3 6 7 6 13 9 14 21 20 25 32 35 39
25 10 8 12 9 4 3 5 3 4 3 4 4 4 2 3 3 3 3 3 3 3 3 2 1 2 1 6 1 3 2 2 2 4 4 7 9 10 12 18 22 26 36 33 36
23 3 12 18 4 2 3 3 3 5 4 2 2 3 4 6 4 4 3 1 7 7 2 2 1 5 2 2 2 5 4 4 3 2 6 7 10 10 15 20 26 33 33 32 34
13 6 16 22 5 6 2 2 3 5 5 6 6 2 2 4 3 3 3 3 8 6 5 5 2 5 3 3 3 4 8 8 1 1 9 4 9 14 20 23 30 31 32 36 34
13 4 6 13 5 2 4 4 3 6 4 4 3 5 4 3 3 3 5 4 7 5 3 4 2 5 7 5 2 6 8 9 8 5 6 14 23 25 20 24 23 31 35 35 33
15 6 10 6 8 7 5 6 5 7 6 9 3 9 7 5 4 5 5 5 5 7 6 3 5 4 12 18 17 18 19 16 17 15 8 17 15 25 22 16 22 29 36 33 34
18 7 11 6 11 18 8 9 10 5 10 6 7 11 12 5 5 7 8 7 4 10 7 4 3 4 6 4 7 14 16 16 17 16 19 25 28 25 16 24 26 30 34 32 34
24 15 16 13 8 12 8 10 11 11 10 4 11 4 12 9 6 8 5 6 8 8 10 5 2 2 5 4 13 9 9 13 7 10 7 8 8 8 15 15 19 26 31 31 33

GFSSW_850_spd_264.txt.gz
Wind_Speed
14 15 14 12 11 10 10 10 10 10 9 10 13 10 5 4 12 19 18 18 18 13 5 9 7 2 6 3 1 2 3 5 11 7 4 13 9 12 11 15 18 17 10 9 7
13 14 13 12 10 9 10 10 9 6 9 11 11 16 6 2 10 15 18 14 15 9 9 9 4 5 4 4 4 3 3 5 5 8 7 13 12 15 13 17 17 19 18 17 18
13 13 12 11 10 9 10 10 8 6 5 10 12 10 8 4 5 11 14 13 15 12 8 6 4 1 3 3 3 2 3 7 10 9 11 12 15 14 12 7 11 17 20 21 22
12 13 12 11 9 10 11 12 10 8 4 6 11 5 11 12 2 13 12 12 13 18 7 4 2 1 3 3 1 3 2 4 7 7 5 7 16 11 19 20 18 19 18 16 14
12 13 12 11 10 10 11 12 9 8 4 4 9 6 4 5 5 10 10 10 10 12 14 6 7 6 2 3 3 4 6 5 4 8 9 14 12 14 25 29 16 12 10 12 17
11 12 12 11 10 10 12 12 8 5 3 3 5 10 7 3 9 9 6 10 8 12 12 13 6 6 5 4 5 7 9 11 5 7 10 10 17 12 14 7 6 12 16 20 21
11 12 13 11 10 10 12 9 9 6 5 1 3 3 6 3 9 10 6 7 8 8 7 9 12 4 2 2 3 5 5 7 8 6 3 10 10 8 12 12 12 18 21 21 16
11 12 13 11 10 10 11 7 7 3 5 0 1 3 1 3 9 12 6 5 7 7 6 6 8 5 4 1 4 5 3 5 5 3 4 4 7 18 22 21 27 22 18 17 13
12 12 12 12 10 10 12 8 6 6 4 4 2 2 1 4 7 13 10 5 4 4 6 8 7 2 3 3 2 2 4 8 9 6 1 3 13 16 27 28 24 18 14 13 10
12 12 12 12 11 10 12 9 6 4 1 2 4 1 2 4 8 15 11 4 4 4 3 2 2 1 5 6 2 4 4 5 12 6 7 13 23 20 25 27 21 9 6 6 11
12 11 11 11 11 11 11 5 3 3 5 4 0 1 2 6 3 13 9 5 4 2 3 3 5 5 5 6 2 4 8 10 14 10 12 10 19 23 22 21 9 7 7 11 11
12 11 10 10 10 9 9 4 2 1 1 1 1 2 3 5 3 11 5 1 2 3 2 0 4 3 2 2 4 7 9 9 9 13 16 11 21 23 15 8 3 6 11 14 12
14 12 10 9 9 7 7 5 2 0 3 0 1 0 2 4 3 9 11 5 4 4 5 4 4 1 2 3 5 6 6 7 10 17 12 9 8 8 6 7 4 11 8 11 15
12 12 11 8 5 7 5 6 2 2 2 3 2 1 2 2 1 8 10 3 1 3 4 4 3 1 3 1 4 4 6 9 13 9 3 8 5 6 3 6 3 12 16 16 19
11 10 9 8 6 5 5 5 2 2 3 2 0 1 4 3 2 3 8 2 3 2 2 2 1 2 3 3 3 7 11 12 14 6 6 2 0 6 10 7 7 9 16 21 25
12 10 8 6 4 4 5 3 3 4 5 1 2 2 3 3 2 4 2 4 0 1 1 4 1 2 5 6 3 9 9 9 1 2 1 2 2 6 4 5 7 9 18 26 33
15 12 8 6 3 1 2 2 4 3 2 1 1 3 2 2 3 3 3 4 3 3 3 3 3 3 2 4 3 7 6 4 5 2 4 6 5 9 10 5 4 8 19 28 37
19 14 10 8 4 1 1 3 2 2 5 0 2 1 1 3 2 1 1 3 5 4 2 2 4 3 1 3 2 5 2 4 4 3 6 9 6 5 4 4 8 21 27 33 36
24 16 11 9 5 4 4 1 5 5 3 7 3 2 2 1 1 1 2 2 3 4 2 3 2 4 2 2 1 1 1 1 0 4 2 4 6 8 5 4 12 20 26 34 36
27 17 12 9 8 5 4 5 3 1 3 2 4 2 4 3 3 4 4 1 4 2 2 1 4 2 3 2 2 2 1 1 0 4 6 6 6 5 8 8 9 17 25 34 37
26 8 9 13 12 7 3 6 3 2 2 2 4 3 2 4 3 3 4 1 3 4 1 4 1 1 2 6 5 1 1 2 2 2 4 4 6 3 6 8 15 18 30 35 39
24 2 13 19 5 4 3 5 1 2 3 2 2 2 5 6 4 3 3 1 7 9 4 3 1 4 3 5 4 4 3 5 4 4 3 2 8 8 6 16 23 26 30 35 35
14 7 18 27 5 4 2 2 1 4 3 3 3 1 2 5 1 2 3 3 7 5 5 5 2 4 2 3 1 4 5 4 5 3 6 3 7 1 16 15 27 25 29 33 37
11 3 4 13 4 5 4 4 4 6 1 4 2 4 3 1 3 4 5 3 6 2 5 2 1 6 6 3 3 5 6 9 7 3 4 11 12 25 18 16 20 25 27 33 33
18 6 11 6 6 5 10 8 8 6 4 8 4 7 5 4 3 4 4 4 4 6 5 3 4 5 6 16 9 14 15 12 10 12 7 13 8 25 21 17 12 22 31 34 34
17 7 9 7 10 14 11 9 10 5 9 6 6 6 8 5 4 8 7 6 5 8 6 4 3 3 6 7 8 13 13 15 17 16 15 21 27 25 23 14 19 23 28 31 32
27 18 20 15 6 10 8 10 15 14 12 5 8 4 8 6 10 9 4 10 10 8 7 6 2 2 6 5 8 7 7 13 5 5 7 7 12 4 9 8 12 20 22 26 31